Weather in Gordali-Yurt

Russia / Chechen Republic     43°16′55″N   46°17′45″E
temp.,
°C
wind,
m/s
gust,
m/s
humid.,
%
clouds,
%
prec.,
mm/h
press.,
hPa
HPBL,
m
14 april, wed
wed1400:00+9ssw11834 0.0 101710
03:00+8wsw218996 0.0 101612
06:00+8sw238981 0.0 101779
09:00+14w5668100 0.0 1017956
12:00+12w5776100 0.1 1017873
15:00+12sw4779100 0.9 1018542
18:00+12sw2276100 1.1 101758
21:00+10sw3580100 1.1 101882
15 april, thu
thu1500:00+8sw228227 0.0 101823
03:00+8sw338598 0.0 101844
06:00+8sw33825 0.0 101856
09:00+15w45561 0.0 1018827
12:00+19wnw34420 0.0 10161428
15:00+20nnw343657 0.0 10162045
18:00+16nne2249100 0.0 101614
21:00+13s2254100 0.0 101811
16 april, fri
fri1600:00+12s225880 0.0 101713
03:00+11ssw216271 0.0 101712
06:00+11s116511 0.0 101813
09:00+17ne2347100 0.0 1018599
12:00+20ene454214 0.0 10171248
15:00+21ene56405 0.0 10161612
18:00+16ene485512 0.0 1016223
21:00+12se116695 0.0 101714
17 april, sat
sat1700:00+12wsw22706 0.0 101717
03:00+11sw227445 0.0 101715
06:00+11wsw237187 0.0 101849
09:00+15w6859100 0.0 1020884
12:00+18wnw4551100 0.0 10201566
15:00+15nw4569100 0.1 1021691
18:00+13wnw2483100 0.3 1022218
21:00+12wnw1190100 1.1 102369
18 april, sun
sun1800:00+12nne1192100 0.1 102258
03:00+11ene1295100 0.1 102164
06:00+10e249567 0.0 1021216
09:00+13ene3477100 0.0 1020816
12:00+14ene3577100 0.5 1019796
15:00+16e456587 0.6 1018984
18:00+14ene3572100 0.0 1018192
21:00+11e248195 0.0 1019126